GFSGBSN_925_temp_000.txt.gz
Temp
12 12 12 11 11 11 11 9 10 10 10 10 10 10 10 9 9 9 9 9 9 9 9 8 8 8 10 13 16 24 26 25 24 22 22 21 21 22 22 21 23 24 24 23 21 22 21
12 12 12 11 11 11 11 10 10 10 10 10 10 10 11 9 9 9 9 9 9 9 8 8 8 8 9 17 24 24 25 25 24 22 21 21 21 22 23 23 23 22 22 23 21 21 22
12 12 11 11 11 11 11 11 11 12 11 10 11 11 11 10 9 9 9 9 9 8 8 8 8 8 10 18 25 25 24 24 24 23 20 22 23 23 22 23 23 22 23 23 23 23 23
12 12 12 11 11 12 12 12 12 12 12 12 13 11 12 12 10 9 9 9 8 8 8 7 8 9 14 24 25 25 26 25 25 24 23 25 23 23 24 22 21 21 20 21 23 24 22
12 12 12 12 12 12 12 12 13 12 14 14 14 13 14 12 11 9 9 8 8 8 7 8 9 10 18 25 25 27 27 26 26 25 25 24 23 22 21 21 20 19 20 23 24 22 23
13 12 12 12 12 12 12 13 13 13 14 14 15 14 14 13 10 9 8 8 9 8 8 9 10 14 21 24 26 26 27 27 25 25 24 22 19 20 19 20 20 21 22 22 23 22 16
13 12 12 12 12 12 13 13 13 14 15 15 15 14 14 13 9 8 8 9 10 11 9 17 19 20 22 24 25 25 26 26 24 21 22 20 20 20 22 21 22 23 22 22 21 20 16
13 12 12 12 12 12 13 13 13 14 14 15 15 15 14 11 9 8 9 10 18 20 19 15 17 18 21 23 24 24 26 25 23 22 22 20 21 22 21 21 21 20 19 19 19 19 17
13 13 12 12 12 12 13 13 13 14 15 15 15 15 14 9 9 8 9 16 20 20 18 21 19 21 23 23 23 24 25 23 23 23 21 20 23 22 22 20 21 21 21 21 19 18 18
12 13 12 12 12 13 13 13 13 14 15 16 16 15 13 9 10 13 13 21 20 19 16 21 24 24 25 23 23 24 24 23 21 20 20 21 21 21 21 21 20 22 21 19 17 18 18
12 12 13 12 12 13 13 13 13 15 15 16 16 15 14 15 14 14 20 20 20 19 15 21 23 25 24 24 23 24 22 23 22 21 21 21 22 21 21 22 22 22 20 19 19 18 17
11 12 13 12 12 13 13 13 14 15 15 16 16 15 13 11 13 20 20 20 20 14 16 22 23 24 23 22 22 22 21 20 21 19 19 20 21 21 22 21 22 21 19 18 16 16 15
11 12 12 12 13 12 13 13 14 15 16 16 16 15 13 15 17 20 20 17 14 13 21 21 22 23 22 20 20 20 19 18 20 20 19 20 20 20 21 22 20 18 18 16 17 14 15
10 12 12 12 13 12 13 13 14 15 16 16 16 14 15 19 20 20 21 15 18 19 19 21 21 21 22 21 20 19 19 18 19 18 17 18 17 21 21 21 21 19 18 15 17 13 16
10 12 12 12 13 13 13 13 14 15 16 16 16 12 15 20 20 20 14 11 15 17 21 21 21 21 21 21 20 19 19 18 19 19 19 18 20 20 21 21 21 20 17 17 13 12 14
11 12 12 12 13 13 12 13 14 15 16 17 15 14 17 20 20 20 12 14 17 18 21 22 21 21 20 21 20 19 20 19 20 19 18 19 19 20 21 21 19 20 17 17 12 15 14
11 12 12 12 13 13 12 13 14 15 16 17 16 15 18 19 21 13 12 15 17 19 21 22 20 20 20 20 19 19 19 19 18 19 19 18 17 18 20 19 19 18 17 14 13 11 12
11 12 12 12 13 12 13 13 15 15 15 14 13 15 17 19 14 10 14 17 18 21 21 22 20 21 20 19 18 18 18 18 16 18 20 17 14 13 19 19 18 19 18 15 11 16 8
12 12 12 13 13 12 13 13 15 15 16 16 12 13 16 18 11 7 15 19 19 21 21 22 21 20 19 17 17 17 17 17 17 18 17 16 14 13 16 18 18 20 17 13 11 10 12
11 12 12 12 12 13 13 14 15 16 16 19 12 13 12 10 11 15 18 19 20 21 21 21 20 19 18 17 16 16 17 17 17 16 13 15 14 15 14 17 15 18 17 15 15 10 12
11 11 12 12 12 13 13 14 15 16 17 17 11 13 13 10 11 14 17 19 20 21 21 20 20 20 18 18 17 16 17 17 16 15 14 14 15 15 14 13 16 17 17 15 15 15 14
11 11 12 12 13 13 13 14 15 16 15 16 12 12 10 11 13 15 14 17 18 20 20 21 20 19 19 16 18 16 16 16 17 14 13 11 11 12 15 12 12 16 16 14 14 15 13
11 11 12 12 13 13 13 14 15 16 16 14 13 13 13 8 11 13 12 17 18 18 18 17 18 16 17 17 14 12 12 11 14 14 11 9 7 10 12 9 10 12 13 13 14 14 13
11 11 12 12 13 13 14 14 15 16 17 19 16 14 11 8 9 13 15 17 17 18 18 17 16 16 15 12 12 13 11 11 11 10 10 6 6 5 8 7 11 15 14 14 15 14 12
11 11 12 12 13 13 13 15 16 16 18 18 18 15 11 7 10 16 15 14 14 13 15 15 14 13 12 12 10 13 10 12 10 9 9 8 5 6 9 8 12 16 13 13 14 14 11
11 11 12 13 13 13 14 15 16 17 17 18 18 18 12 10 11 15 14 15 11 12 11 14 13 12 10 5 8 10 12 15 14 13 9 8 5 7 3 9 10 13 14 14 15 12 11
11 11 12 13 13 13 14 15 16 17 18 19 17 18 15 12 13 14 14 14 12 11 10 13 14 15 11 4 5 8 11 12 13 10 8 6 5 5 2 5 9 11 14 14 13 13 10
11 11 12 12 13 14 14 15 16 17 18 19 17 17 16 11 13 15 15 13 12 12 11 12 12 10 6 9 7 6 5 9 10 11 10 9 7 6 4 4 11 11 14 13 12 11 10
11 11 12 13 13 14 15 16 17 18 19 20 17 16 16 12 13 14 15 15 16 15 11 10 14 12 9 8 3 6 7 8 6 10 10 11 10 9 9 10 11 11 12 12 11 11 10

GFSGBSN_925_temp_003.txt.gz
Temp
13 13 12 12 12 11 11 11 11 9 10 10 10 10 9 9 9 9 9 9 9 9 8 8 8 8 9 12 16 24 25 25 22 21 22 21 21 22 23 23 23 23 24 22 21 23 23
13 13 12 12 12 11 11 11 11 10 10 10 9 9 9 9 9 9 9 9 9 9 8 8 8 8 8 16 23 23 23 24 23 21 20 21 22 23 23 23 24 23 23 22 22 22 23
13 13 12 12 12 11 11 11 11 11 10 9 10 9 10 9 9 9 9 9 9 8 8 7 8 8 9 18 23 23 23 23 23 22 20 21 22 23 23 22 23 22 24 23 22 23 23
13 13 12 12 12 12 12 11 12 11 11 10 10 9 10 9 9 9 9 9 8 7 7 7 8 8 13 23 23 24 24 23 22 22 22 23 22 22 23 22 22 23 22 24 24 23 22
13 13 13 12 12 12 12 12 12 12 12 11 9 9 11 11 9 8 8 8 7 7 7 8 8 8 17 24 23 25 25 25 23 21 21 21 22 22 23 23 23 21 23 23 24 20 23
12 12 13 13 12 12 12 12 12 12 12 13 9 11 12 10 9 8 7 7 7 8 8 8 8 12 18 24 24 25 26 26 24 22 22 22 21 22 22 24 24 23 23 23 24 21 20
11 12 13 13 13 12 12 12 12 12 13 13 10 10 11 9 9 8 8 8 10 11 9 16 17 18 20 23 24 25 25 25 23 22 23 21 23 23 23 22 22 22 23 23 21 20 19
11 12 12 13 13 12 12 12 12 12 13 12 11 10 12 9 9 7 8 9 16 19 19 13 15 17 19 22 24 24 25 24 23 23 22 23 22 21 21 21 21 21 21 20 20 19 20
10 11 12 12 13 13 13 12 12 12 13 12 11 12 11 9 8 7 7 11 18 18 18 20 17 19 22 22 23 24 24 22 22 22 21 22 22 21 21 21 22 21 21 19 21 20 20
10 11 11 12 12 13 13 12 12 13 13 12 12 14 10 8 10 10 10 19 19 17 18 21 22 24 23 22 22 22 22 22 21 20 20 21 20 21 21 21 21 22 20 20 20 21 22
9 10 10 12 12 13 13 13 13 13 13 12 13 13 9 11 11 11 18 17 17 18 17 21 23 24 21 23 23 23 21 22 21 20 21 21 21 21 21 21 21 21 19 20 20 20 21
9 10 10 11 12 13 13 13 13 13 12 12 13 13 9 9 10 18 18 17 18 16 17 21 22 23 22 20 20 20 22 20 19 20 20 20 20 21 21 19 20 19 20 19 19 20 21
8 9 10 11 12 12 12 13 13 13 12 13 13 13 9 12 13 16 17 16 16 16 20 21 21 22 21 20 20 19 19 19 21 21 20 20 20 20 20 21 20 20 21 20 20 20 20
8 9 10 10 11 12 12 13 13 13 12 12 13 11 9 16 17 16 16 17 19 18 18 21 20 21 21 20 19 19 19 19 19 19 19 20 21 21 20 21 21 20 21 20 19 19 20
8 8 9 9 11 12 12 13 13 12 12 11 10 9 10 17 17 15 15 13 16 16 20 20 21 21 20 20 20 19 18 19 18 19 21 20 20 20 20 20 21 20 20 18 16 14 17
8 8 8 9 11 12 12 13 13 12 12 11 11 10 13 17 17 16 14 15 18 17 20 20 20 20 20 20 20 19 19 18 19 18 18 19 20 19 20 20 19 20 18 20 17 18 18
7 7 8 9 10 12 12 12 12 12 12 12 13 13 16 17 16 14 14 15 17 18 19 20 20 20 20 20 19 19 19 18 18 19 18 18 19 19 19 20 20 19 19 15 16 15 18
8 7 8 9 10 12 12 13 12 12 10 9 11 14 15 17 15 11 15 16 18 19 20 20 20 20 19 19 19 18 19 19 16 18 19 17 17 18 19 19 18 19 18 17 18 17 13
7 7 8 9 11 12 13 13 12 12 11 11 12 13 15 17 13 10 14 18 19 20 21 21 20 19 18 17 18 17 17 17 17 18 18 17 17 17 19 20 19 19 17 15 14 13 14
6 6 8 9 11 12 13 13 12 12 13 15 13 14 13 11 11 15 17 18 20 19 20 20 18 18 17 18 16 16 17 17 16 15 12 15 15 17 19 19 17 18 17 15 17 16 15
6 6 7 9 11 12 13 13 13 13 14 13 12 13 14 12 12 14 17 17 19 20 20 20 20 19 18 17 17 16 16 16 16 14 14 16 17 15 14 14 15 17 17 16 17 17 18
6 7 8 11 11 12 13 14 13 13 12 11 12 12 10 12 13 15 15 17 18 19 19 20 19 18 19 17 18 16 16 16 17 14 14 12 14 13 14 13 13 16 16 16 15 15 16
8 7 10 11 12 12 13 13 13 13 13 12 11 13 14 8 11 14 13 16 18 18 18 17 18 17 18 17 15 13 13 12 14 15 12 12 11 13 15 11 13 15 15 16 15 15 17
7 9 11 12 12 12 13 13 13 14 15 17 16 13 11 9 10 13 14 17 17 17 18 16 16 17 14 13 13 14 13 12 12 11 11 9 10 9 13 10 16 18 14 15 16 15 15
9 10 11 12 12 13 13 13 14 15 15 16 17 15 11 8 11 14 14 15 14 14 15 15 13 13 13 13 13 15 12 13 11 10 10 10 9 9 13 13 14 17 14 14 15 18 15
10 11 11 11 12 13 13 14 14 15 16 16 17 19 12 10 11 15 14 14 12 12 12 13 12 12 11 8 11 14 15 15 15 13 10 9 8 12 9 14 15 16 15 14 15 16 15
11 11 11 11 13 13 14 15 15 15 16 17 17 19 15 13 12 14 15 14 12 12 12 12 13 14 11 9 10 13 15 12 15 13 10 10 8 11 7 13 13 13 14 14 16 17 13
10 10 11 12 12 13 14 15 16 16 16 17 16 17 17 12 12 14 13 13 12 13 13 12 13 12 9 11 11 11 11 12 13 12 11 13 11 10 7 10 14 12 14 15 16 13 13
10 11 12 12 13 14 15 16 16 17 17 18 16 15 17 12 13 14 14 14 15 14 12 10 15 12 12 10 8 7 9 8 8 14 10 13 13 13 12 13 13 13 13 13 12 13 13

GFSGBSN_925_temp_006.txt.gz
Temp
13 13 13 13 13 12 12 11 11 11 11 9 9 9 9 9 9 9 9 9 9 9 9 8 8 8 10 18 23 24 24 24 21 21 24 26 26 26 26 27 27 26 28 26 27 28 29
13 13 13 13 13 12 12 11 11 11 11 9 9 9 9 9 9 9 9 9 9 9 8 8 7 7 12 21 23 22 24 23 21 22 24 26 27 27 27 27 28 28 27 26 26 28 27
11 13 13 13 13 13 12 12 11 11 11 10 9 9 9 9 9 9 8 9 9 9 8 7 7 8 13 22 22 21 21 22 23 23 26 25 25 26 27 26 27 27 27 27 27 28 27
10 11 13 13 13 13 12 12 12 11 11 11 9 9 9 9 8 8 8 8 9 8 7 7 7 9 19 21 21 21 22 22 22 23 24 23 24 26 26 26 27 27 28 27 26 28 26
10 11 12 12 13 13 13 13 12 12 11 11 11 9 9 8 8 8 8 8 8 7 7 7 9 11 23 23 23 24 23 26 23 22 22 22 24 25 25 27 27 27 27 27 26 26 28
9 10 11 12 12 13 13 13 12 12 11 11 11 9 9 8 8 8 8 8 7 7 8 8 10 14 23 27 25 25 25 25 26 24 23 25 26 27 27 28 26 27 27 28 27 26 28
9 10 11 11 12 13 13 13 13 12 12 12 11 9 9 9 9 8 7 9 12 14 10 22 22 22 25 25 24 26 26 27 27 26 26 25 26 27 28 28 28 28 28 27 27 25 26
8 9 10 11 12 12 13 13 12 12 12 12 11 9 9 9 9 8 8 15 20 19 23 19 20 20 22 22 26 28 26 28 27 27 26 26 26 25 25 26 27 28 27 26 24 24 26
8 9 9 10 12 12 13 13 12 12 12 12 11 9 9 9 8 7 9 14 16 17 22 22 21 23 25 24 26 27 27 27 27 27 26 28 25 25 26 27 27 27 27 26 27 24 26
8 8 9 10 11 12 12 13 12 12 12 12 11 9 9 8 9 11 13 17 15 15 23 24 24 25 25 26 25 24 25 27 25 26 27 26 24 26 27 26 25 26 25 25 25 25 26
7 8 9 9 10 11 12 12 12 12 12 12 11 9 9 10 13 14 17 15 15 17 21 25 25 25 25 26 26 25 23 26 26 25 25 24 25 26 26 25 24 25 25 25 25 26 26
7 7 8 9 10 10 11 12 12 12 12 12 11 10 8 8 9 14 15 15 18 21 21 24 26 25 25 25 25 25 25 25 25 25 26 25 24 25 25 24 24 24 25 25 25 26 24
7 7 8 9 9 11 11 12 12 12 12 12 11 10 8 9 17 14 14 19 22 21 23 24 24 25 25 24 24 25 25 25 26 24 25 25 25 24 25 24 24 25 26 24 24 24 24
7 7 8 8 9 10 10 11 12 12 11 12 11 8 8 9 12 14 16 22 21 23 23 24 24 25 25 24 24 24 24 25 24 25 25 25 23 24 24 25 26 25 26 25 22 22 25
7 7 7 8 9 10 10 11 12 11 11 11 9 8 8 10 12 11 19 20 22 23 24 24 24 24 24 24 24 24 24 25 24 24 26 25 24 23 23 24 25 23 24 24 22 19 22
7 7 7 8 9 9 9 11 11 11 11 11 9 9 14 13 14 14 20 21 23 22 23 24 24 25 24 24 24 24 24 23 23 23 23 24 23 23 22 23 23 24 23 23 23 21 21
7 7 7 8 8 9 9 10 11 11 11 12 12 17 15 14 14 19 21 22 22 23 22 23 24 24 25 23 24 24 24 22 22 23 24 24 24 22 22 24 25 23 23 22 23 21 23
7 7 8 7 8 8 8 10 11 11 11 9 16 18 13 14 20 22 22 22 21 23 22 23 24 24 24 24 24 24 24 24 21 23 24 23 23 22 23 22 22 24 24 24 23 21 19
6 7 8 7 7 8 8 10 11 10 9 9 17 19 14 15 20 19 20 22 22 23 23 23 24 24 23 23 23 23 23 19 20 22 23 22 23 22 22 22 22 23 23 22 21 20 20
6 6 7 7 7 8 8 9 10 10 12 15 19 18 18 19 21 22 21 22 23 21 23 23 22 22 22 22 21 21 21 19 19 20 13 20 22 23 23 24 23 22 22 22 23 21 22
6 6 7 6 7 7 9 10 11 12 12 13 19 20 21 18 19 22 22 23 23 22 22 23 22 24 23 21 21 21 21 19 19 14 19 21 22 21 20 20 20 22 23 22 22 23 22
6 6 6 6 6 6 9 10 11 12 11 12 19 19 18 21 20 21 19 22 23 23 23 23 24 23 23 22 23 21 22 21 22 19 20 18 20 18 18 18 19 20 22 22 22 23 22
6 6 6 6 6 6 9 11 11 11 10 15 16 16 22 13 20 21 20 22 23 23 20 21 24 22 22 21 20 21 19 20 21 21 19 19 17 18 20 16 17 17 20 22 22 23 22
6 6 6 6 7 7 10 11 11 12 13 18 17 19 20 17 19 20 21 22 22 23 22 20 21 22 17 18 19 19 19 19 19 17 17 15 17 16 17 14 17 23 19 20 22 22 23
6 6 7 7 8 8 10 11 11 12 14 16 16 19 20 13 19 19 20 21 20 19 19 19 18 18 18 19 20 19 18 16 16 16 16 17 17 14 16 19 21 23 19 19 20 22 22
6 6 6 7 9 10 11 11 12 13 15 15 15 17 21 17 17 21 20 20 19 20 18 15 15 16 17 17 18 19 19 20 18 17 15 15 15 18 14 17 18 21 19 18 19 21 20
6 7 7 9 10 12 12 12 13 13 15 15 16 18 21 21 19 19 20 19 20 20 19 16 16 16 16 16 17 18 20 18 20 17 13 15 14 15 16 16 19 19 18 18 19 20 20
8 9 9 11 12 12 12 12 13 14 15 15 15 17 19 20 17 18 19 18 17 20 19 17 18 17 16 16 17 18 17 18 18 18 16 17 16 14 13 15 16 18 17 18 20 19 19
9 10 11 12 12 12 12 13 13 15 15 15 16 16 17 19 17 14 14 14 17 21 20 18 21 19 20 18 15 14 13 11 15 18 15 17 18 19 18 20 19 18 20 20 18 18 18

GFSGBSN_925_temp_009.txt.gz
Temp
11 12 13 13 13 13 13 13 12 12 11 11 11 9 9 9 9 9 9 9 9 9 9 9 8 8 12 20 24 24 24 23 21 20 25 27 27 28 28 28 29 28 30 29 29 30 30
10 11 12 13 13 13 13 13 12 12 11 11 11 9 9 9 9 9 9 9 8 9 9 8 8 9 14 21 26 25 22 21 23 24 26 28 28 29 29 29 29 30 30 29 30 30 30
9 10 11 12 13 13 13 13 12 12 12 11 11 9 9 9 9 8 9 9 9 9 9 8 8 10 17 23 26 25 23 24 25 26 28 28 28 28 29 28 30 29 28 28 29 30 30
8 9 10 11 12 13 13 13 13 12 12 12 12 11 9 9 9 8 8 8 8 8 8 7 8 12 20 25 25 25 25 25 25 26 26 27 27 27 27 29 28 29 29 28 29 30 30
8 8 9 10 11 12 13 13 13 12 12 12 12 11 9 9 8 8 8 8 8 8 7 8 11 15 24 24 25 27 27 26 26 26 26 25 26 26 27 27 28 29 27 28 28 31 30
8 8 9 9 11 12 12 12 13 12 12 12 12 11 10 9 8 8 8 8 9 9 9 10 14 17 24 28 28 27 27 27 27 26 25 26 26 26 27 28 26 27 28 28 28 29 30
7 8 8 9 10 11 12 12 12 12 12 12 12 11 9 9 8 8 8 11 15 16 15 23 25 25 28 28 27 28 28 28 28 27 27 27 27 27 28 28 29 29 29 29 29 29 29
7 7 8 8 9 11 12 12 12 12 12 12 12 11 9 9 9 8 9 18 22 20 23 23 24 25 25 26 26 29 28 29 28 27 28 26 25 27 29 29 29 29 29 29 29 28 29
7 8 8 8 9 10 11 12 12 12 12 12 11 11 9 9 9 8 12 17 19 19 22 25 25 26 27 27 28 29 30 30 28 27 28 27 28 28 28 28 28 29 29 28 28 28 29
7 7 8 8 8 9 10 11 12 12 12 12 11 11 9 9 9 14 16 17 17 17 23 25 25 27 27 28 27 28 29 29 28 28 27 26 28 28 29 28 29 28 29 28 28 27 27
6 7 7 8 8 9 10 10 11 12 12 12 11 10 9 11 14 17 20 18 19 18 21 27 27 27 28 27 28 27 28 29 27 28 28 27 27 28 28 28 28 24 28 28 28 28 28
6 6 7 7 8 8 9 10 11 11 11 11 11 9 8 8 10 15 16 16 18 21 22 25 27 26 26 27 27 28 28 29 28 27 28 27 28 29 28 27 28 28 27 28 28 28 26
6 6 7 7 8 8 9 10 11 11 11 11 11 9 8 11 18 16 15 19 21 21 26 26 26 27 27 26 26 27 27 27 26 24 26 27 28 27 28 27 27 28 27 26 26 26 25
5 6 6 7 7 8 9 9 10 10 11 11 10 9 8 12 14 14 17 20 21 24 26 27 27 27 26 27 27 26 27 27 28 28 27 26 25 27 28 28 28 27 28 26 24 24 27
5 5 5 6 7 8 8 9 10 10 11 10 8 8 9 9 11 13 20 19 22 26 27 26 26 26 26 26 27 26 27 27 28 28 26 27 26 27 27 27 28 27 25 28 26 25 24
5 4 5 6 7 7 8 9 9 9 10 9 10 9 13 12 11 14 20 21 25 26 27 27 25 26 25 26 26 26 26 28 27 27 28 27 26 26 25 26 26 26 28 25 25 23 23
4 5 5 6 7 8 8 8 9 9 10 11 14 16 20 14 13 18 20 22 26 26 26 26 26 26 27 26 26 26 27 26 27 26 27 28 26 25 25 25 27 25 25 25 26 25 23
4 5 4 6 7 7 8 8 9 9 11 10 15 17 15 14 19 20 21 24 25 26 25 26 26 27 26 27 26 26 26 27 26 27 26 27 26 24 25 26 26 26 27 26 23 24 23
4 4 3 5 7 7 7 8 8 9 10 11 17 19 14 17 19 20 23 25 25 25 25 25 25 27 27 26 25 26 26 22 23 25 26 26 25 23 24 25 25 25 26 26 26 23 23
4 4 5 6 7 8 7 7 7 9 11 13 19 19 16 15 22 22 23 24 24 25 26 26 26 26 26 25 26 25 25 22 22 25 16 21 25 25 24 25 26 24 26 26 25 23 23
4 5 5 6 7 8 7 7 7 9 11 13 20 21 21 18 21 23 24 24 24 24 25 26 25 26 26 24 25 25 25 22 22 16 22 24 23 25 25 24 25 25 26 26 25 25 24
4 5 6 6 6 7 7 7 7 9 12 12 19 22 23 22 22 23 21 24 25 25 25 25 26 26 26 25 25 25 25 24 24 22 23 23 23 22 21 24 23 24 25 26 26 26 26
5 5 6 6 7 7 6 7 7 9 11 14 19 19 23 19 22 23 23 24 25 26 24 26 26 26 25 25 24 24 25 25 25 23 23 22 20 20 21 20 21 18 21 24 26 26 26
5 5 6 6 6 6 6 7 7 9 11 16 19 22 19 19 23 22 24 24 25 25 24 24 26 26 22 23 23 23 23 23 22 21 23 18 20 19 20 15 16 25 24 24 24 26 27
5 5 6 6 6 6 7 6 8 9 12 16 19 21 21 16 22 23 23 24 25 24 24 23 21 23 23 23 21 20 19 18 19 21 21 21 20 18 17 21 23 24 24 23 23 24 25
5 6 6 6 6 6 6 5 7 10 12 10 15 19 23 20 21 24 23 24 22 23 20 18 20 21 20 22 20 21 21 22 21 20 20 19 18 20 18 17 16 22 22 21 22 22 23
6 6 6 6 6 6 6 7 9 11 12 10 18 18 23 22 24 23 23 23 24 23 23 19 18 18 20 19 17 21 21 22 21 19 14 17 16 17 18 17 20 23 22 21 20 21 22
6 6 6 6 7 7 6 7 10 11 12 9 18 17 23 23 21 22 24 23 23 24 21 20 20 19 19 18 18 21 19 21 21 22 19 19 18 16 17 14 16 22 21 20 21 22 22
6 6 6 7 7 7 8 9 11 12 13 13 18 16 20 23 20 18 18 18 22 24 24 20 24 22 22 22 19 19 15 13 20 19 20 20 21 21 21 21 21 22 22 22 21 20 21

GFSGBSN_925_temp_012.txt.gz
Temp
10 10 11 11 13 13 13 13 13 12 12 12 11 11 11 10 9 9 9 9 8 9 9 9 9 11 11 19 23 25 25 23 22 22 24 27 28 28 27 29 29 28 29 30 30 29 29
9 9 9 10 11 12 13 13 13 13 12 12 11 11 11 10 9 9 9 9 8 9 9 9 9 11 12 21 27 25 24 23 23 23 26 28 28 29 28 29 29 29 29 29 30 30 29
9 9 9 9 11 12 12 13 13 13 12 12 11 11 11 11 9 9 8 8 8 9 9 9 9 10 17 22 27 26 24 24 25 24 27 28 28 28 29 28 30 30 28 28 29 30 29
9 9 9 9 9 11 11 12 13 13 12 12 12 11 11 11 10 10 9 8 8 8 8 9 11 12 19 25 25 26 26 26 25 26 27 28 27 28 27 28 29 28 29 26 28 29 30
8 8 8 9 9 10 11 12 13 12 12 12 12 12 11 10 10 9 9 9 8 9 8 9 12 15 22 25 26 27 27 27 28 27 27 27 26 26 27 25 27 28 26 25 26 29 30
8 8 8 8 9 9 10 11 12 12 12 12 12 11 11 10 9 10 9 9 9 10 10 12 15 18 22 27 29 29 28 27 28 27 26 26 26 26 26 27 25 26 26 27 27 29 30
7 8 8 8 8 9 9 11 11 12 12 12 12 11 11 10 9 9 9 11 14 14 15 22 25 24 28 29 28 28 29 28 28 27 25 27 25 25 27 27 27 28 28 28 29 30 29
7 7 8 8 8 8 9 10 11 11 12 12 12 11 11 9 8 9 9 16 22 21 21 22 24 26 26 27 27 29 29 28 28 26 28 26 25 27 27 27 28 28 28 28 29 30 29
7 7 7 7 8 8 9 10 10 11 12 12 12 11 11 9 9 9 12 16 19 19 22 26 26 26 27 28 27 29 30 29 28 27 27 23 24 28 28 27 27 28 28 27 28 29 29
6 7 7 7 7 8 8 9 10 11 11 11 12 11 10 9 10 14 15 17 19 17 21 25 26 27 28 28 27 30 30 29 28 26 27 22 25 27 27 28 28 25 27 28 27 25 26
5 6 6 7 7 8 8 9 10 10 11 11 11 11 11 12 14 17 19 20 20 19 20 27 27 29 29 27 29 28 29 29 27 28 26 26 27 27 27 27 28 26 26 27 29 28 27
5 5 6 6 7 7 8 8 9 10 10 11 11 11 10 8 9 14 16 17 19 19 20 26 28 27 27 27 28 29 28 29 29 27 28 25 27 28 27 28 29 28 26 27 28 28 23
5 5 5 6 6 7 8 8 9 9 10 11 11 10 10 11 17 17 16 17 19 20 26 26 26 27 27 26 27 27 27 26 26 25 25 25 27 28 29 28 28 28 27 25 23 22 23
4 5 5 5 6 7 7 8 9 9 10 10 11 10 9 11 14 15 16 16 19 23 25 28 27 27 26 27 27 27 27 26 27 27 26 25 25 28 28 28 25 27 27 24 18 17 22
4 4 4 5 6 7 7 8 8 9 9 9 10 8 9 9 12 13 15 16 21 25 26 27 27 26 26 28 27 27 27 27 28 28 25 21 23 27 28 29 28 27 26 28 25 21 24
4 4 4 5 6 6 7 8 8 9 9 9 10 9 11 11 12 13 15 18 22 26 28 28 26 27 26 27 26 26 26 28 28 29 28 19 18 23 27 27 28 26 28 25 25 22 22
3 4 4 5 5 6 7 7 8 9 9 9 12 14 17 12 11 15 16 20 23 27 28 27 26 26 27 27 27 26 27 28 28 28 28 27 22 26 26 26 26 26 25 26 26 25 22
3 3 4 4 5 5 6 7 8 8 9 9 14 14 15 12 15 18 18 22 23 26 27 26 27 27 27 28 27 27 25 27 28 28 26 27 26 23 25 28 28 27 26 26 22 23 23
3 3 4 4 5 5 6 7 7 8 9 9 15 16 14 16 17 17 20 22 24 25 26 26 26 27 28 27 26 27 27 25 25 27 26 27 25 22 24 26 27 26 27 27 27 23 22
3 4 4 4 4 4 5 6 7 8 8 10 16 14 13 14 20 20 20 22 23 26 26 27 26 27 27 26 27 26 26 24 24 25 18 23 25 24 22 25 26 25 26 27 26 20 21
3 4 4 4 4 5 5 6 7 8 8 9 15 18 18 14 18 20 22 23 23 24 26 27 26 26 26 25 26 25 27 23 23 17 23 24 23 24 26 26 26 25 26 26 26 25 23
4 4 4 4 4 4 5 7 7 7 8 9 15 19 20 19 19 20 20 22 24 25 25 25 25 26 26 25 26 25 26 24 24 23 24 24 22 22 22 24 25 24 25 26 26 26 26
3 4 4 4 4 5 6 7 7 7 7 10 15 17 20 18 20 20 21 23 24 26 26 27 26 26 26 26 26 25 25 25 26 24 23 23 20 19 20 21 20 18 21 24 25 26 26
4 4 3 5 5 5 7 7 7 7 7 13 16 18 16 19 20 21 22 24 25 26 25 26 27 26 24 25 25 24 24 24 24 23 25 19 20 19 18 15 17 23 26 25 25 26 26
4 4 4 5 5 6 6 7 7 7 7 8 16 15 15 15 21 22 23 24 25 26 25 25 23 24 24 24 21 20 19 18 21 23 22 22 19 18 16 19 22 23 25 24 23 24 24
4 5 5 5 6 6 6 7 7 6 7 7 10 12 14 18 21 24 24 25 23 23 22 19 23 24 24 22 20 21 20 22 21 20 21 20 19 19 17 18 17 22 23 23 23 21 23
4 5 5 6 6 6 6 6 6 6 7 8 10 12 13 18 23 23 23 23 25 23 21 20 19 19 21 18 16 21 21 23 20 19 14 16 17 15 17 16 18 24 23 22 20 20 22
5 5 6 6 6 6 6 6 6 6 8 7 9 11 13 17 23 24 25 24 24 23 20 21 20 21 20 18 17 20 18 21 21 22 18 18 17 15 17 14 15 23 22 19 21 22 21
6 6 6 6 6 6 6 6 7 7 7 7 9 11 15 16 19 19 19 20 22 25 23 20 23 21 21 21 19 19 14 13 17 19 23 20 21 20 19 18 21 23 22 23 22 21 21